Location: Home
(51.5204°N, 2.5456°W)
Time: 14:38:02
(UTC+00:00)

N. Korean satellite - Pass Details

Date: 23 October 2019
Orbit: 456 x 506 km, 97.2° (Epoch: 16 November)

Event Time Altitude Azimuth Distance (km) Brightness Sun altitude
Rises 06:03:33 0° 29° (NNE) 2,567 10.7 -16.7°
Reaches altitude 10° 06:06:23 10° 54° (NE) 1,691 10.1 -16.3°
Maximum altitude 06:08:31 15° 90° (E) 1,417 10.1 -16.0°
Drops below altitude 10° 06:10:39 10° 126° (SE) 1,697 10.1 -15.6°
Sets 06:13:29 0° 150° (SSE) 2,582 10.7 -15.2°
